Location: Austin
(30.3000°N, 97.7500°W)
Time: 03:42:23
(UTC-05:00)

Cosmos 2219 Rocket - Pass Details

Date: 18 March 2023
Orbit: 826 x 848 km, 71.0° (Epoch: 01 April)

Event Time Altitude Azimuth Distance (km) Brightness Sun altitude
Rises 20:24:19 0° 4° (N) 3,411 5.4 -10.1°
Reaches altitude 10° 20:28:28 10° 33° (NNE) 2,473 4.4 -11.0°
Maximum altitude 20:30:46 12° 57° (ENE) 2,299 4.0 -11.5°
Enters shadow 20:31:51 12° 69° (ENE) 2,336 4.0 -11.8°
